Weather History for Owatonna, MN

Change the Weather History Date:

Friday, December 7, 2012

  Actual Average Record
Temperature  
Mean Temperature 30 °F -  
Max Temperature 35 °F 28 °F 44 °F (1963)
Min Temperature 24 °F 13 °F -21 °F (1972)
Degree Days  
Heating Degree Days 36    
Moisture  
Dew Point 21 °F    
Average Humidity 68    
Maximum Humidity 80    
Minimum Humidity 52    
Precipitation  
Precipitation 0.00 in - - ()
Sea Level Pressure  
Sea Level Pressure 29.99 in    
Wind  
Wind Speed 5 mph (North)    
Max Wind Speed 14 mph    
Max Gust Speed 16 mph    
Visibility 8 miles    
Events Snow    
Averages and records for this station are not official NWS values.
T = Trace of Precipitation, MM = Missing Value Source: NWS Daily Summary

Daily Weather History Graph

Daily Weather History Graph

Search for Another Location

Airport:

Trip Planner

Search our weather history database for the weather conditions in past years. The results will help you decide how hot, cold, wet, or windy it might be!

Date:

Astronomy

Dec. 07, 2012 Rise Set
Actual Time 7:34 AM CST 4:34 PM CST
Civil Twilight 7:02 AM CST 5:07 PM CST
Nautical Twilight 6:25 AM CST 5:43 PM CST
Astronomical Twilight 5:50 AM CST 6:18 PM CST
Moon 12:42 AM CST (12/7) 12:42 PM CST (12/7)
Length of Visible Light 10h 05m
Length of Day
8h 59m
Last Quarter, 38% of the Moon is Illuminated
Dec 7
Last Quarter
Dec 13
New
Dec 19
First Quarter
Dec 28
Full
Jan 4
Last Quarter

Hourly Weather History & Observations

Time (CST) Temp. Windchill Dew Point Humidity Pressure Visibility Wind Dir Wind Speed Gust Speed Precip Events Conditions
12:14 AM 33.8 °F 29.6 °F 21.2 °F 60% 29.97 in 10.0 mi NW 4.6 mph - N/A   Clear
12:34 AM 33.8 °F 28.6 °F 21.2 °F 60% 29.97 in 10.0 mi NW 5.8 mph - N/A   Clear
12:54 AM 33.8 °F 27.0 °F 21.2 °F 60% 29.98 in 10.0 mi NW 8.1 mph - N/A   Clear
1:14 AM 32.0 °F 24.8 °F 21.2 °F 64% 29.99 in 10.0 mi NW 8.1 mph - N/A   Clear
1:34 AM 32.0 °F 24.2 °F 21.2 °F 64% 30.00 in 10.0 mi NW 9.2 mph - N/A   Clear
1:54 AM 30.2 °F 23.4 °F 21.2 °F 69% 30.00 in 10.0 mi NW 6.9 mph - N/A   Clear
2:14 AM 30.2 °F 22.6 °F 19.4 °F 64% 30.01 in 10.0 mi NNW 8.1 mph - N/A   Clear
2:34 AM 30.2 °F 25.4 °F 21.2 °F 69% 30.01 in 10.0 mi NNW 4.6 mph - N/A   Clear
2:54 AM 30.2 °F 24.3 °F 19.4 °F 64% 30.01 in 10.0 mi NNW 5.8 mph - N/A   Clear
3:14 AM 28.4 °F 24.6 °F 19.4 °F 69% 30.01 in 10.0 mi NNW 3.5 mph - N/A   Clear
3:34 AM 28.4 °F 24.6 °F 19.4 °F 69% 30.00 in 10.0 mi North 3.5 mph - N/A   Clear
3:54 AM 28.4 °F - 19.4 °F 69% 30.00 in 10.0 mi Calm Calm - N/A   Clear
4:14 AM 28.4 °F 24.6 °F 19.4 °F 69% 30.01 in 10.0 mi NW 3.5 mph - N/A   Clear
4:33 AM 28.4 °F - 21.2 °F 74% 30.00 in 10.0 mi Calm Calm - N/A   Clear
4:53 AM 28.4 °F - 19.4 °F 69% 30.00 in 10.0 mi Calm Calm - N/A   Clear
5:14 AM 28.4 °F - 21.2 °F 74% 29.99 in 10.0 mi Calm Calm - N/A   Clear
5:34 AM 28.4 °F - 19.4 °F 69% 29.99 in 10.0 mi Calm Calm - N/A   Clear
5:54 AM 28.4 °F 23.3 °F 19.4 °F 69% 30.00 in 10.0 mi North 4.6 mph - N/A   Clear
6:14 AM 28.4 °F - 19.4 °F 69% 30.00 in 10.0 mi Calm Calm - N/A   Clear
6:34 AM 28.4 °F - 19.4 °F 69% 30.00 in 10.0 mi Calm Calm - N/A   Clear
6:53 AM 28.4 °F - 19.4 °F 69% 29.99 in 10.0 mi Calm Calm - N/A   Clear
7:14 AM 26.6 °F - 19.4 °F 74% 29.98 in 10.0 mi Calm Calm - N/A   Clear
7:34 AM 24.8 °F - 17.6 °F 74% 29.98 in 10.0 mi Calm Calm - N/A   Clear
7:54 AM 24.8 °F - 17.6 °F 74% 29.98 in 10.0 mi Calm Calm - N/A   Clear
8:14 AM 24.8 °F - 17.6 °F 74% 29.99 in 10.0 mi Calm Calm - N/A   Scattered Clouds
8:34 AM 28.4 °F 24.6 °F 21.2 °F 74% 29.99 in 10.0 mi North 3.5 mph - N/A   Overcast
8:54 AM 30.2 °F 24.3 °F 21.2 °F 69% 29.99 in 10.0 mi North 5.8 mph - N/A   Mostly Cloudy
9:14 AM 30.2 °F 24.3 °F 19.4 °F 64% 29.98 in 10.0 mi North 5.8 mph - N/A   Scattered Clouds
9:34 AM 30.2 °F 25.4 °F 19.4 °F 64% 29.99 in 10.0 mi NNE 4.6 mph - N/A   Mostly Cloudy
9:54 AM 32.0 °F 27.5 °F 19.4 °F 60% 29.99 in 10.0 mi NE 4.6 mph - N/A   Mostly Cloudy
10:14 AM 32.0 °F - 21.2 °F 64% 30.00 in 10.0 mi Calm Calm - N/A   Mostly Cloudy
10:34 AM 32.0 °F - 19.4 °F 60% 30.01 in 10.0 mi Calm Calm - N/A   Scattered Clouds
10:54 AM 33.8 °F - 21.2 °F 60% 30.01 in 10.0 mi Calm Calm - N/A   Scattered Clouds
11:14 AM 33.8 °F - 19.4 °F 56% 30.00 in 10.0 mi Calm Calm - N/A   Mostly Cloudy
11:34 AM 33.8 °F 28.6 °F 19.4 °F 56% 29.99 in 10.0 mi NNW 5.8 mph - N/A   Mostly Cloudy
11:54 AM 35.6 °F 29.2 °F 19.4 °F 52% 29.98 in 10.0 mi North 8.1 mph - N/A   Scattered Clouds
12:14 PM 35.6 °F 28.6 °F 19.4 °F 52% 29.99 in 10.0 mi NNW 9.2 mph - N/A   Mostly Cloudy
12:34 PM 33.8 °F 25.3 °F 19.4 °F 56% 29.98 in 10.0 mi North 11.5 mph - N/A   Mostly Cloudy
12:54 PM 33.8 °F 27.7 °F 19.4 °F 56% 29.98 in 10.0 mi North 6.9 mph - N/A   Scattered Clouds
1:14 PM 33.8 °F 25.3 °F 19.4 °F 56% 29.98 in 10.0 mi North 11.5 mph - N/A   Overcast
1:34 PM 33.8 °F 26.4 °F 19.4 °F 56% 29.98 in 10.0 mi North 9.2 mph - N/A   Scattered Clouds
1:54 PM 33.8 °F 25.8 °F 19.4 °F 56% 29.98 in 10.0 mi North 10.4 mph - N/A   Scattered Clouds
2:14 PM 33.8 °F 27.0 °F 19.4 °F 56% 29.98 in 10.0 mi North 8.1 mph 16.1 mph N/A   Scattered Clouds
2:34 PM 33.8 °F 25.8 °F 19.4 °F 56% 29.98 in 10.0 mi North 10.4 mph 16.1 mph N/A   Clear
2:54 PM 33.8 °F 25.3 °F 19.4 °F 56% 29.98 in 10.0 mi North 11.5 mph - N/A   Clear
3:14 PM 33.8 °F 24.3 °F 19.4 °F 56% 29.98 in 10.0 mi North 13.8 mph - N/A   Clear
3:34 PM 33.8 °F 27.0 °F 19.4 °F 56% 29.99 in 10.0 mi North 8.1 mph - N/A   Clear
3:54 PM 33.8 °F 25.8 °F 19.4 °F 56% 29.98 in 10.0 mi NNE 10.4 mph - N/A   Clear
4:14 PM 33.8 °F 25.8 °F 21.2 °F 60% 29.97 in 10.0 mi NE 10.4 mph - N/A   Clear
4:34 PM 33.8 °F 26.4 °F 21.2 °F 60% 29.98 in 10.0 mi North 9.2 mph - N/A   Clear
4:54 PM 32.0 °F 24.8 °F 23.0 °F 69% 29.98 in 7.0 mi NNE 8.1 mph - N/A Snow Light Snow
5:14 PM 30.2 °F 25.4 °F 24.8 °F 80% 29.98 in 2.5 mi NE 4.6 mph - N/A Snow Light Snow
5:54 PM 30.2 °F 21.9 °F 24.8 °F 80% 29.98 in 4.0 mi NE 9.2 mph - N/A Snow Light Snow
6:14 PM 30.2 °F 24.3 °F 24.8 °F 80% 29.99 in 4.0 mi NE 5.8 mph - N/A Snow Light Snow
6:34 PM 30.2 °F 21.9 °F 24.8 °F 80% 29.99 in 4.0 mi NE 9.2 mph - N/A Snow Light Snow
6:54 PM 30.2 °F 21.9 °F 24.8 °F 80% 29.98 in 3.0 mi NE 9.2 mph - N/A Snow Light Snow
7:14 PM 30.2 °F 21.9 °F 24.8 °F 80% 29.99 in 4.0 mi NNE 9.2 mph - N/A Snow Light Snow
7:34 PM 30.2 °F 20.2 °F 24.8 °F 80% 29.99 in 2.5 mi NNE 12.7 mph - N/A Snow Light Snow
7:54 PM 30.2 °F 21.3 °F 24.8 °F 80% 29.99 in 3.0 mi NNE 10.4 mph - N/A Snow Light Snow
8:14 PM 30.2 °F 21.3 °F 24.8 °F 80% 29.99 in 3.0 mi NNE 10.4 mph 16.1 mph N/A Snow Light Snow
8:34 PM 30.2 °F 21.9 °F 24.8 °F 80% 29.99 in 3.0 mi NE 9.2 mph - N/A Snow Light Snow
9:14 PM 30.2 °F 22.6 °F 24.8 °F 80% 29.99 in 5.0 mi NE 8.1 mph - N/A Snow Light Snow
9:34 PM 30.2 °F 24.3 °F 24.8 °F 80% 29.99 in 5.0 mi NNE 5.8 mph - N/A Snow Light Snow
9:53 PM 30.2 °F 25.4 °F 24.8 °F 80% 29.99 in 7.0 mi NE 4.6 mph - N/A Snow Light Snow
10:14 PM 30.2 °F 23.4 °F 24.8 °F 80% 29.99 in 5.0 mi NNE 6.9 mph - N/A Snow Light Snow
10:34 PM 30.2 °F 24.3 °F 24.8 °F 80% 29.99 in 5.0 mi NE 5.8 mph - N/A Snow Light Snow
10:54 PM 30.2 °F 25.4 °F 24.8 °F 80% 29.99 in 7.0 mi NE 4.6 mph - N/A   Scattered Clouds
11:14 PM 30.2 °F 24.3 °F 23.0 °F 75% 29.99 in 7.0 mi NNE 5.8 mph - N/A   Scattered Clouds
11:34 PM 28.4 °F 24.6 °F 23.0 °F 80% 29.99 in 7.0 mi NNE 3.5 mph - N/A   Mostly Cloudy
11:53 PM 28.4 °F 24.6 °F 23.0 °F 80% 29.99 in 10.0 mi NNE 3.5 mph - N/A   Overcast